Time,TemperatureF,DewpointF,PressureIn,WindDirection,WindDirectionDegrees,WindSpeedMPH,WindSpeedGustMPH,Humidity,HourlyPrecipIn,Conditions,Clouds,dailyrainin,SoftwareType,DateUTC
2013-01-13 00:02:00,57.9,57.1,30.14,South,180,0.0,0.0,97,-99.99,,,-99.99,WeatherSnoop3.0,2013-01-13 05:02:00,
2013-01-13 00:03:00,57.7,56.9,30.14,South,180,0.0,0.0,97,-99.99,,,-99.99,WeatherSnoop3.0,2013-01-13 05:03:00,
2013-01-13 00:05:00,57.7,56.9,30.14,South,180,0.0,0.0,97,-99.99,,,-99.99,WeatherSnoop3.0,2013-01-13 05:05:00,
2013-01-13 00:07:00,57.7,56.9,30.14,South,180,0.0,0.0,97,-99.99,,,-99.99,WeatherSnoop3.0,2013-01-13 05:07:00,
2013-01-13 00:12:00,57.7,56.9,30.14,South,180,0.0,0.0,97,-99.99,,,-99.99,WeatherSnoop3.0,2013-01-13 05:12:00,
2013-01-13 00:17:00,57.7,56.9,30.14,South,180,0.0,0.0,97,-99.99,,,-99.99,WeatherSnoop3.0,2013-01-13 05:17:00,
2013-01-13 00:22:00,57.7,56.9,30.14,South,180,0.0,0.0,97,-99.99,,,-99.99,WeatherSnoop3.0,2013-01-13 05:22:00,
2013-01-13 00:27:00,57.6,56.7,30.13,South,180,0.0,0.0,97,-99.99,,,-99.99,WeatherSnoop3.0,2013-01-13 05:27:00,
2013-01-13 00:32:00,57.6,56.7,30.14,South,180,0.0,0.0,97,-99.99,,,-99.99,WeatherSnoop3.0,2013-01-13 05:32:00,
2013-01-13 00:37:00,57.2,56.4,30.14,South,180,0.0,0.0,97,-99.99,,,-99.99,WeatherSnoop3.0,2013-01-13 05:37:00,
2013-01-13 00:42:00,57.4,56.5,30.13,South,180,0.0,0.0,97,-99.99,,,-99.99,WeatherSnoop3.0,2013-01-13 05:42:00,
2013-01-13 00:47:00,57.4,56.5,30.13,South,180,0.0,0.0,97,-99.99,,,-99.99,WeatherSnoop3.0,2013-01-13 05:47:00,
2013-01-13 00:52:00,57.6,56.7,30.13,South,180,0.0,0.0,97,-99.99,,,-99.99,WeatherSnoop3.0,2013-01-13 05:52:00,
2013-01-13 00:57:00,57.4,56.8,30.12,South,180,0.0,0.0,98,-99.99,,,-99.99,WeatherSnoop3.0,2013-01-13 05:57:00,
2013-01-13 01:02:00,57.4,56.8,30.13,South,180,0.0,0.0,98,-99.99,,,-99.99,WeatherSnoop3.0,2013-01-13 06:02:00,
2013-01-13 01:07:00,57.2,56.4,30.13,South,180,0.0,0.0,97,-99.99,,,-99.99,WeatherSnoop3.0,2013-01-13 06:07:00,
2013-01-13 01:12:00,57.2,56.4,30.12,South,180,0.0,0.0,97,-99.99,,,-99.99,WeatherSnoop3.0,2013-01-13 06:12:00,
2013-01-13 01:17:00,57.2,56.6,30.13,South,180,0.0,0.0,98,-99.99,,,-99.99,WeatherSnoop3.0,2013-01-13 06:17:00,
2013-01-13 01:22:00,57.2,56.6,30.13,South,180,0.0,0.0,98,-99.99,,,-99.99,WeatherSnoop3.0,2013-01-13 06:22:00,
2013-01-13 01:27:00,57.2,56.6,30.13,South,180,0.0,0.0,98,-99.99,,,-99.99,WeatherSnoop3.0,2013-01-13 06:27:00,
2013-01-13 01:32:00,57.2,56.6,30.13,South,180,0.0,0.0,98,-99.99,,,-99.99,WeatherSnoop3.0,2013-01-13 06:32:00,
2013-01-13 01:37:00,57.2,56.6,30.13,South,180,0.0,0.0,98,-99.99,,,-99.99,WeatherSnoop3.0,2013-01-13 06:37:00,
2013-01-13 01:42:00,57.7,57.2,30.13,South,180,0.0,0.0,98,-99.99,,,-99.99,WeatherSnoop3.0,2013-01-13 06:42:00,
2013-01-13 01:47:00,58.3,57.7,30.14,South,180,0.0,0.0,98,-99.99,,,-99.99,WeatherSnoop3.0,2013-01-13 06:47:00,
2013-01-13 01:52:00,58.5,57.9,30.14,South,180,0.0,0.0,98,-99.99,,,-99.99,WeatherSnoop3.0,2013-01-13 06:52:00,
2013-01-13 01:57:00,59.0,58.1,30.14,South,180,0.0,0.0,97,-99.99,,,-99.99,WeatherSnoop3.0,2013-01-13 06:57:00,
2013-01-13 02:02:00,59.0,58.1,30.14,South,180,0.0,0.0,97,-99.99,,,-99.99,WeatherSnoop3.0,2013-01-13 07:02:00,
2013-01-13 02:07:00,59.2,58.3,30.14,South,180,0.0,0.0,97,-99.99,,,-99.99,WeatherSnoop3.0,2013-01-13 07:07:00,
2013-01-13 02:12:00,59.5,58.7,30.14,South,180,0.0,0.0,97,-99.99,,,-99.99,WeatherSnoop3.0,2013-01-13 07:12:00,
2013-01-13 02:17:00,59.4,58.5,30.14,South,180,0.0,0.0,97,-99.99,,,-99.99,WeatherSnoop3.0,2013-01-13 07:17:00,
2013-01-13 02:22:00,60.1,59.5,30.14,South,180,0.0,0.0,98,-99.99,,,-99.99,WeatherSnoop3.0,2013-01-13 07:22:00,
2013-01-13 02:27:00,60.4,59.9,30.13,South,180,0.0,0.0,98,-99.99,,,-99.99,WeatherSnoop3.0,2013-01-13 07:27:00,
2013-01-13 02:32:00,60.4,59.9,30.14,South,180,0.0,0.0,98,-99.99,,,-99.99,WeatherSnoop3.0,2013-01-13 07:32:00,
2013-01-13 02:37:00,60.3,59.7,30.13,South,180,0.0,0.0,98,-99.99,,,-99.99,WeatherSnoop3.0,2013-01-13 07:37:00,
2013-01-13 02:42:00,59.7,59.2,30.13,South,180,0.0,0.0,98,-99.99,,,-99.99,WeatherSnoop3.0,2013-01-13 07:42:00,
2013-01-13 02:47:00,59.4,58.8,30.13,South,180,0.0,0.0,98,-99.99,,,-99.99,WeatherSnoop3.0,2013-01-13 07:47:00,
2013-01-13 02:52:00,59.4,58.8,30.12,South,180,0.0,0.0,98,-99.99,,,-99.99,WeatherSnoop3.0,2013-01-13 07:52:00,
2013-01-13 02:57:00,59.2,58.6,30.13,South,180,0.0,0.0,98,-99.99,,,-99.99,WeatherSnoop3.0,2013-01-13 07:57:00,
2013-01-13 03:02:00,58.8,58.3,30.13,South,180,0.0,0.0,98,-99.99,,,-99.99,WeatherSnoop3.0,2013-01-13 08:02:00,
2013-01-13 03:07:00,58.6,58.1,30.13,South,180,0.0,0.0,98,-99.99,,,-99.99,WeatherSnoop3.0,2013-01-13 08:07:00,
2013-01-13 03:12:00,58.5,57.9,30.13,South,180,0.0,0.0,98,-99.99,,,-99.99,WeatherSnoop3.0,2013-01-13 08:12:00,
2013-01-13 03:17:00,58.6,58.1,30.12,South,180,0.0,0.0,98,-99.99,,,-99.99,WeatherSnoop3.0,2013-01-13 08:17:00,
2013-01-13 03:22:00,59.0,58.4,30.12,South,180,0.0,0.0,98,-99.99,,,-99.99,WeatherSnoop3.0,2013-01-13 08:22:00,
2013-01-13 03:27:00,58.8,58.5,30.12,South,180,0.0,0.0,99,-99.99,,,-99.99,WeatherSnoop3.0,2013-01-13 08:27:00,
2013-01-13 03:32:00,59.2,58.6,30.12,South,180,0.0,0.0,98,-99.99,,,-99.99,WeatherSnoop3.0,2013-01-13 08:32:00,
2013-01-13 03:37:00,58.8,58.5,30.12,South,180,0.0,0.0,99,-99.99,,,-99.99,WeatherSnoop3.0,2013-01-13 08:37:00,
2013-01-13 03:42:00,58.8,58.5,30.11,South,180,0.0,0.0,99,-99.99,,,-99.99,WeatherSnoop3.0,2013-01-13 08:42:00,
2013-01-13 03:47:00,59.0,58.4,30.11,South,180,0.0,0.0,98,-99.99,,,-99.99,WeatherSnoop3.0,2013-01-13 08:47:00,
2013-01-13 03:52:00,58.6,58.4,30.11,South,180,0.0,0.0,99,-99.99,,,-99.99,WeatherSnoop3.0,2013-01-13 08:52:00,
2013-01-13 03:57:00,58.5,58.2,30.11,South,180,0.0,0.0,99,-99.99,,,-99.99,WeatherSnoop3.0,2013-01-13 08:57:00,
2013-01-13 04:02:00,58.6,58.4,30.11,South,180,0.0,0.0,99,-99.99,,,-99.99,WeatherSnoop3.0,2013-01-13 09:02:00,
2013-01-13 04:07:00,58.1,57.8,30.11,South,180,0.0,0.0,99,-99.99,,,-99.99,WeatherSnoop3.0,2013-01-13 09:07:00,
2013-01-13 04:12:00,57.9,57.6,30.10,South,180,0.0,0.0,99,-99.99,,,-99.99,WeatherSnoop3.0,2013-01-13 09:12:00,
2013-01-13 04:17:00,57.7,57.5,30.11,South,180,0.0,0.0,99,-99.99,,,-99.99,WeatherSnoop3.0,2013-01-13 09:17:00,
2013-01-13 04:22:00,57.6,57.3,30.10,South,180,0.0,0.0,99,-99.99,,,-99.99,WeatherSnoop3.0,2013-01-13 09:22:00,
2013-01-13 04:27:00,57.7,57.5,30.10,South,180,0.0,0.0,99,-99.99,,,-99.99,WeatherSnoop3.0,2013-01-13 09:27:00,
2013-01-13 04:32:00,57.6,57.3,30.10,South,180,0.0,0.0,99,-99.99,,,-99.99,WeatherSnoop3.0,2013-01-13 09:32:00,
2013-01-13 04:37:00,57.6,57.3,30.10,South,180,0.0,0.0,99,-99.99,,,-99.99,WeatherSnoop3.0,2013-01-13 09:37:00,
2013-01-13 04:42:00,57.2,56.6,30.11,South,180,0.0,0.0,98,-99.99,,,-99.99,WeatherSnoop3.0,2013-01-13 09:42:00,
2013-01-13 04:47:00,57.2,56.9,30.10,South,180,0.0,0.0,99,-99.99,,,-99.99,WeatherSnoop3.0,2013-01-13 09:47:00,
2013-01-13 04:52:00,56.8,56.6,30.10,South,180,0.0,0.0,99,-99.99,,,-99.99,WeatherSnoop3.0,2013-01-13 09:52:00,
2013-01-13 04:57:00,56.8,56.6,30.10,South,180,0.0,0.0,99,-99.99,,,-99.99,WeatherSnoop3.0,2013-01-13 09:57:00,
2013-01-13 05:02:00,56.7,56.4,30.10,South,180,0.0,0.0,99,-99.99,,,-99.99,WeatherSnoop3.0,2013-01-13 10:02:00,
2013-01-13 05:07:00,56.5,56.2,30.10,South,180,0.0,0.0,99,-99.99,,,-99.99,WeatherSnoop3.0,2013-01-13 10:07:00,
2013-01-13 05:12:00,56.5,56.2,30.10,South,180,0.0,0.0,99,-99.99,,,-99.99,WeatherSnoop3.0,2013-01-13 10:12:00,
2013-01-13 05:17:00,56.7,56.4,30.10,South,180,0.0,0.0,99,-99.99,,,-99.99,WeatherSnoop3.0,2013-01-13 10:17:00,
2013-01-13 05:22:00,56.5,56.2,30.10,South,180,0.0,0.0,99,-99.99,,,-99.99,WeatherSnoop3.0,2013-01-13 10:22:00,
2013-01-13 05:27:00,56.5,56.2,30.10,South,180,0.0,0.0,99,-99.99,,,-99.99,WeatherSnoop3.0,2013-01-13 10:27:00,
2013-01-13 05:32:00,56.3,56.0,30.10,South,180,0.0,0.0,99,-99.99,,,-99.99,WeatherSnoop3.0,2013-01-13 10:32:00,
2013-01-13 05:37:00,56.7,56.4,30.10,South,180,0.0,0.0,99,-99.99,,,-99.99,WeatherSnoop3.0,2013-01-13 10:37:00,
2013-01-13 05:42:00,56.1,55.8,30.10,South,180,0.0,0.0,99,-99.99,,,-99.99,WeatherSnoop3.0,2013-01-13 10:42:00,
2013-01-13 05:47:00,55.8,55.5,30.11,South,180,0.0,0.0,99,-99.99,,,-99.99,WeatherSnoop3.0,2013-01-13 10:47:00,
2013-01-13 05:52:00,56.1,55.8,30.11,South,180,0.0,0.0,99,-99.99,,,-99.99,WeatherSnoop3.0,2013-01-13 10:52:00,
2013-01-13 05:57:00,55.8,55.5,30.11,South,180,0.0,0.0,99,-99.99,,,-99.99,WeatherSnoop3.0,2013-01-13 10:57:00,
2013-01-13 06:02:00,56.1,55.8,30.11,South,180,0.0,0.0,99,-99.99,,,-99.99,WeatherSnoop3.0,2013-01-13 11:02:00,
2013-01-13 06:07:00,56.5,56.2,30.12,South,180,0.0,0.0,99,-99.99,,,-99.99,WeatherSnoop3.0,2013-01-13 11:07:00,
2013-01-13 06:12:00,56.3,56.0,30.12,South,180,0.0,0.0,99,-99.99,,,-99.99,WeatherSnoop3.0,2013-01-13 11:12:00,
2013-01-13 06:17:00,55.9,55.7,30.12,South,180,0.0,0.0,99,-99.99,,,-99.99,WeatherSnoop3.0,2013-01-13 11:17:00,
2013-01-13 06:22:00,55.6,55.3,30.12,South,180,0.0,0.0,99,-99.99,,,-99.99,WeatherSnoop3.0,2013-01-13 11:22:00,
2013-01-13 06:27:00,55.6,55.3,30.12,South,180,0.0,0.0,99,-99.99,,,-99.99,WeatherSnoop3.0,2013-01-13 11:27:00,
2013-01-13 06:32:00,55.4,55.1,30.12,South,180,0.0,0.0,99,-99.99,,,-99.99,WeatherSnoop3.0,2013-01-13 11:32:00,
2013-01-13 06:37:00,55.4,55.1,30.13,South,180,0.0,0.0,99,-99.99,,,-99.99,WeatherSnoop3.0,2013-01-13 11:37:00,
2013-01-13 06:42:00,55.2,54.4,30.13,South,180,0.0,0.0,97,-99.99,,,-99.99,WeatherSnoop3.0,2013-01-13 11:42:00,
2013-01-13 06:47:00,55.2,54.4,30.13,South,180,0.0,0.0,97,-99.99,,,-99.99,WeatherSnoop3.0,2013-01-13 11:47:00,
2013-01-13 06:52:00,55.0,54.2,30.13,South,180,0.0,0.0,97,-99.99,,,-99.99,WeatherSnoop3.0,2013-01-13 11:52:00,
2013-01-13 06:57:00,55.2,54.4,30.13,South,180,0.0,0.0,97,-99.99,,,-99.99,WeatherSnoop3.0,2013-01-13 11:57:00,
2013-01-13 07:02:00,55.4,55.1,30.13,South,180,0.0,0.0,99,-99.99,,,-99.99,WeatherSnoop3.0,2013-01-13 12:02:00,
2013-01-13 07:07:00,55.2,54.4,30.13,South,180,0.0,0.0,97,-99.99,,,-99.99,WeatherSnoop3.0,2013-01-13 12:07:00,
2013-01-13 07:12:00,54.9,54.0,30.14,South,180,0.0,0.0,97,-99.99,,,-99.99,WeatherSnoop3.0,2013-01-13 12:12:00,
2013-01-13 07:17:00,54.7,53.8,30.14,South,180,0.0,0.0,97,-99.99,,,-99.99,WeatherSnoop3.0,2013-01-13 12:17:00,
2013-01-13 07:22:00,54.5,53.7,30.14,South,180,0.0,0.0,97,-99.99,,,-99.99,WeatherSnoop3.0,2013-01-13 12:22:00,
2013-01-13 07:27:00,54.5,53.7,30.14,South,180,0.0,0.0,97,-99.99,,,-99.99,WeatherSnoop3.0,2013-01-13 12:27:00,
2013-01-13 07:32:00,54.3,53.5,30.14,South,180,0.0,0.0,97,-99.99,,,-99.99,WeatherSnoop3.0,2013-01-13 12:32:00,
2013-01-13 07:37:00,54.5,53.7,30.14,South,180,0.0,0.0,97,-99.99,,,-99.99,WeatherSnoop3.0,2013-01-13 12:37:00,
2013-01-13 07:42:00,54.5,53.7,30.15,South,180,0.0,0.0,97,-99.99,,,-99.99,WeatherSnoop3.0,2013-01-13 12:42:00,
2013-01-13 07:47:00,54.7,53.8,30.15,South,180,0.0,0.0,97,-99.99,,,-99.99,WeatherSnoop3.0,2013-01-13 12:47:00,
2013-01-13 07:52:00,55.0,54.2,30.15,South,180,0.0,0.0,97,-99.99,,,-99.99,WeatherSnoop3.0,2013-01-13 12:52:00,
2013-01-13 07:57:00,55.2,54.4,30.15,South,180,0.0,0.0,97,-99.99,,,-99.99,WeatherSnoop3.0,2013-01-13 12:57:00,
2013-01-13 08:02:00,55.2,54.4,30.16,South,180,0.0,0.0,97,-99.99,,,-99.99,WeatherSnoop3.0,2013-01-13 13:02:00,
2013-01-13 08:07:00,55.4,55.1,30.16,South,180,0.0,0.0,99,-99.99,,,-99.99,WeatherSnoop3.0,2013-01-13 13:07:00,
2013-01-13 08:12:00,55.8,55.5,30.16,South,180,0.0,0.0,99,-99.99,,,-99.99,WeatherSnoop3.0,2013-01-13 13:12:00,
2013-01-13 08:17:00,55.9,55.7,30.16,South,180,0.0,0.0,99,-99.99,,,-99.99,WeatherSnoop3.0,2013-01-13 13:17:00,
2013-01-13 08:22:00,56.5,56.2,30.16,South,180,0.0,0.0,99,-99.99,,,-99.99,WeatherSnoop3.0,2013-01-13 13:22:00,
2013-01-13 08:27:00,56.8,56.6,30.16,South,180,0.0,0.0,99,-99.99,,,-99.99,WeatherSnoop3.0,2013-01-13 13:27:00,
2013-01-13 08:32:00,57.4,57.1,30.17,South,180,0.0,0.0,99,-99.99,,,-99.99,WeatherSnoop3.0,2013-01-13 13:32:00,
2013-01-13 08:37:00,57.9,57.6,30.17,South,180,0.0,0.0,99,-99.99,,,-99.99,WeatherSnoop3.0,2013-01-13 13:37:00,
2013-01-13 08:42:00,58.6,58.4,30.17,South,180,0.0,0.0,99,-99.99,,,-99.99,WeatherSnoop3.0,2013-01-13 13:42:00,
2013-01-13 08:47:00,59.0,58.4,30.17,South,180,0.0,0.0,98,-99.99,,,-99.99,WeatherSnoop3.0,2013-01-13 13:47:00,
2013-01-13 08:52:00,59.5,59.0,30.18,South,180,0.0,0.0,98,-99.99,,,-99.99,WeatherSnoop3.0,2013-01-13 13:52:00,
2013-01-13 08:57:00,59.4,58.8,30.18,South,180,0.0,0.0,98,-99.99,,,-99.99,WeatherSnoop3.0,2013-01-13 13:57:00,
2013-01-13 09:02:00,59.9,59.3,30.18,South,180,0.0,0.0,98,-99.99,,,-99.99,WeatherSnoop3.0,2013-01-13 14:02:00,
2013-01-13 09:07:00,60.3,60.0,30.18,South,180,0.0,0.0,99,-99.99,,,-99.99,WeatherSnoop3.0,2013-01-13 14:07:00,
2013-01-13 09:12:00,60.4,60.2,30.18,South,180,0.0,0.0,99,-99.99,,,-99.99,WeatherSnoop3.0,2013-01-13 14:12:00,
2013-01-13 09:17:00,60.4,60.2,30.18,South,180,0.0,0.0,99,-99.99,,,-99.99,WeatherSnoop3.0,2013-01-13 14:17:00,
2013-01-13 09:22:00,60.6,60.3,30.18,South,180,0.0,0.0,99,-99.99,,,-99.99,WeatherSnoop3.0,2013-01-13 14:22:00,
2013-01-13 09:27:00,60.3,60.0,30.18,South,180,0.0,0.0,99,-99.99,,,-99.99,WeatherSnoop3.0,2013-01-13 14:27:00,
2013-01-13 09:32:00,59.5,59.3,30.18,South,180,0.0,0.0,99,-99.99,,,-99.99,WeatherSnoop3.0,2013-01-13 14:32:00,
2013-01-13 09:37:00,60.1,59.8,30.18,North,0,0.0,0.0,99,-99.99,,,-99.99,WeatherSnoop3.0,2013-01-13 14:37:00,
2013-01-13 09:42:00,61.2,60.6,30.19,East,90,0.0,0.0,98,-99.99,,,-99.99,WeatherSnoop3.0,2013-01-13 14:42:00,
2013-01-13 09:47:00,60.8,60.2,30.19,South,180,0.0,0.0,98,-99.99,,,-99.99,WeatherSnoop3.0,2013-01-13 14:47:00,
2013-01-13 09:52:00,61.0,60.4,30.19,South,180,0.0,0.0,98,-99.99,,,-99.99,WeatherSnoop3.0,2013-01-13 14:52:00,
2013-01-13 09:57:00,61.5,60.9,30.19,South,180,0.0,0.0,98,-99.99,,,-99.99,WeatherSnoop3.0,2013-01-13 14:57:00,
2013-01-13 10:02:00,61.0,60.4,30.19,South,180,0.7,1.6,98,-99.99,,,-99.99,WeatherSnoop3.0,2013-01-13 15:02:00,
2013-01-13 10:07:00,60.6,60.3,30.19,SE,135,0.7,1.6,99,-99.99,,,-99.99,WeatherSnoop3.0,2013-01-13 15:07:00,
2013-01-13 10:12:00,61.5,60.9,30.19,South,180,0.0,0.7,98,-99.99,,,-99.99,WeatherSnoop3.0,2013-01-13 15:12:00,
2013-01-13 10:17:00,61.7,61.1,30.19,East,90,0.0,0.7,98,-99.99,,,-99.99,WeatherSnoop3.0,2013-01-13 15:17:00,
2013-01-13 10:22:00,63.5,62.6,30.19,East,90,0.7,1.6,97,-99.99,,,-99.99,WeatherSnoop3.0,2013-01-13 15:22:00,
2013-01-13 10:27:00,63.3,62.5,30.19,South,180,0.0,0.7,97,-99.99,,,-99.99,WeatherSnoop3.0,2013-01-13 15:27:00,
2013-01-13 10:32:00,64.2,63.3,30.18,South,180,0.0,0.7,97,-99.99,,,-99.99,WeatherSnoop3.0,2013-01-13 15:32:00,
2013-01-13 10:37:00,66.4,65.2,30.18,East,90,0.0,0.0,96,-99.99,,,-99.99,WeatherSnoop3.0,2013-01-13 15:37:00,
2013-01-13 10:42:00,66.2,64.7,30.18,East,90,0.7,1.6,95,-99.99,,,-99.99,WeatherSnoop3.0,2013-01-13 15:42:00,
2013-01-13 10:47:00,66.7,64.3,30.17,South,180,1.6,2.2,92,-99.99,,,-99.99,WeatherSnoop3.0,2013-01-13 15:47:00,
2013-01-13 10:52:00,68.4,65.0,30.17,South,180,0.0,0.0,89,-99.99,,,-99.99,WeatherSnoop3.0,2013-01-13 15:52:00,
2013-01-13 10:57:00,69.3,64.2,30.17,South,180,0.7,1.6,84,-99.99,,,-99.99,WeatherSnoop3.0,2013-01-13 15:57:00,
2013-01-13 11:02:00,70.2,63.0,30.17,South,180,0.0,0.7,78,-99.99,,,-99.99,WeatherSnoop3.0,2013-01-13 16:02:00,
2013-01-13 11:07:00,72.1,63.4,30.17,South,180,0.7,1.6,74,-99.99,,,-99.99,WeatherSnoop3.0,2013-01-13 16:07:00,
2013-01-13 11:12:00,72.5,62.9,30.17,South,180,0.7,2.2,72,-99.99,,,-99.99,WeatherSnoop3.0,2013-01-13 16:12:00,
2013-01-13 11:17:00,72.3,62.4,30.17,South,180,0.7,1.6,71,-99.99,,,-99.99,WeatherSnoop3.0,2013-01-13 16:17:00,
2013-01-13 11:22:00,72.0,62.0,30.17,South,180,0.7,2.2,71,-99.99,,,-99.99,WeatherSnoop3.0,2013-01-13 16:22:00,
2013-01-13 11:27:00,72.7,63.1,30.16,East,90,1.6,3.1,72,-99.99,,,-99.99,WeatherSnoop3.0,2013-01-13 16:27:00,
2013-01-13 11:32:00,71.2,62.1,30.16,South,180,1.6,3.1,73,-99.99,,,-99.99,WeatherSnoop3.0,2013-01-13 16:32:00,
2013-01-13 11:37:00,72.1,62.6,30.16,South,180,1.6,2.2,72,-99.99,,,-99.99,WeatherSnoop3.0,2013-01-13 16:37:00,
2013-01-13 11:42:00,71.4,61.9,30.16,South,180,1.6,3.1,72,-99.99,,,-99.99,WeatherSnoop3.0,2013-01-13 16:42:00,
2013-01-13 11:47:00,71.2,61.7,30.15,South,180,1.6,3.1,72,-99.99,,,-99.99,WeatherSnoop3.0,2013-01-13 16:47:00,
2013-01-13 11:52:00,69.4,60.8,30.15,South,180,0.7,1.6,74,-99.99,,,-99.99,WeatherSnoop3.0,2013-01-13 16:52:00,
2013-01-13 11:57:00,70.2,61.5,30.15,South,180,2.2,3.8,74,-99.99,,,-99.99,WeatherSnoop3.0,2013-01-13 16:57:00,
2013-01-13 12:02:00,71.2,62.1,30.15,South,180,1.6,2.2,73,-99.99,,,-99.99,WeatherSnoop3.0,2013-01-13 17:02:00,
2013-01-13 12:07:00,71.8,61.9,30.15,East,90,1.6,3.1,71,-99.99,,,-99.99,WeatherSnoop3.0,2013-01-13 17:07:00,
2013-01-13 12:12:00,72.1,62.2,30.15,South,180,0.7,1.6,71,-99.99,,,-99.99,WeatherSnoop3.0,2013-01-13 17:12:00,
2013-01-13 12:17:00,71.6,61.3,30.14,South,180,2.2,3.8,70,-99.99,,,-99.99,WeatherSnoop3.0,2013-01-13 17:17:00,
2013-01-13 12:22:00,70.0,60.9,30.14,South,180,0.7,2.2,73,-99.99,,,-99.99,WeatherSnoop3.0,2013-01-13 17:22:00,
2013-01-13 12:27:00,70.3,61.3,30.14,South,180,1.6,2.2,73,-99.99,,,-99.99,WeatherSnoop3.0,2013-01-13 17:27:00,
2013-01-13 12:32:00,70.9,61.8,30.14,South,180,0.7,2.2,73,-99.99,,,-99.99,WeatherSnoop3.0,2013-01-13 17:32:00,
2013-01-13 12:37:00,72.1,62.2,30.14,East,90,0.7,1.6,71,-99.99,,,-99.99,WeatherSnoop3.0,2013-01-13 17:37:00,
2013-01-13 12:42:00,74.3,63.0,30.13,South,180,1.6,3.1,68,-99.99,,,-99.99,WeatherSnoop3.0,2013-01-13 17:42:00,
2013-01-13 12:47:00,73.4,61.8,30.13,South,180,0.7,2.2,67,-99.99,,,-99.99,WeatherSnoop3.0,2013-01-13 17:47:00,
2013-01-13 12:52:00,73.8,62.1,30.13,South,180,0.7,2.2,67,-99.99,,,-99.99,WeatherSnoop3.0,2013-01-13 17:52:00,
2013-01-13 12:57:00,74.5,62.8,30.12,South,180,0.7,2.2,67,-99.99,,,-99.99,WeatherSnoop3.0,2013-01-13 17:57:00,
2013-01-13 13:02:00,73.8,62.1,30.12,SE,135,1.6,3.1,67,-99.99,,,-99.99,WeatherSnoop3.0,2013-01-13 18:02:00,
2013-01-13 13:07:00,76.5,64.2,30.12,East,90,0.7,2.2,66,-99.99,,,-99.99,WeatherSnoop3.0,2013-01-13 18:07:00,
2013-01-13 13:12:00,74.5,61.9,30.12,South,180,1.6,3.1,65,-99.99,,,-99.99,WeatherSnoop3.0,2013-01-13 18:12:00,
2013-01-13 13:17:00,73.0,60.1,30.11,South,180,1.6,2.2,64,-99.99,,,-99.99,WeatherSnoop3.0,2013-01-13 18:17:00,
2013-01-13 13:22:00,74.5,62.8,30.11,SE,135,2.2,3.8,67,-99.99,,,-99.99,WeatherSnoop3.0,2013-01-13 18:22:00,
2013-01-13 13:27:00,73.6,61.5,30.11,South,180,1.6,2.2,66,-99.99,,,-99.99,WeatherSnoop3.0,2013-01-13 18:27:00,
2013-01-13 13:32:00,73.6,61.5,30.11,South,180,3.1,3.8,66,-99.99,,,-99.99,WeatherSnoop3.0,2013-01-13 18:32:00,
2013-01-13 13:37:00,73.2,61.2,30.11,East,90,2.2,3.8,66,-99.99,,,-99.99,WeatherSnoop3.0,2013-01-13 18:37:00,
2013-01-13 13:42:00,71.6,59.6,30.11,South,180,0.0,1.6,66,-99.99,,,-99.99,WeatherSnoop3.0,2013-01-13 18:42:00,
2013-01-13 13:47:00,72.0,60.8,30.11,South,180,0.0,0.0,68,-99.99,,,-99.99,WeatherSnoop3.0,2013-01-13 18:47:00,
2013-01-13 13:52:00,71.4,61.1,30.10,North,0,1.6,3.1,70,-99.99,,,-99.99,WeatherSnoop3.0,2013-01-13 18:52:00,
2013-01-13 13:57:00,70.7,60.4,30.10,South,180,0.7,1.6,70,-99.99,,,-99.99,WeatherSnoop3.0,2013-01-13 18:57:00,
2013-01-13 14:02:00,70.3,60.9,30.10,SW,225,0.7,1.6,72,-99.99,,,-99.99,WeatherSnoop3.0,2013-01-13 19:02:00,
2013-01-13 14:07:00,70.7,61.2,30.09,East,90,0.0,1.6,72,-99.99,,,-99.99,WeatherSnoop3.0,2013-01-13 19:07:00,
2013-01-13 14:12:00,70.0,60.5,30.10,South,180,1.6,2.2,72,-99.99,,,-99.99,WeatherSnoop3.0,2013-01-13 19:12:00,
2013-01-13 14:17:00,69.4,60.8,30.10,South,180,0.7,1.6,74,-99.99,,,-99.99,WeatherSnoop3.0,2013-01-13 19:17:00,
2013-01-13 14:22:00,68.5,60.3,30.10,East,90,0.0,0.7,75,-99.99,,,-99.99,WeatherSnoop3.0,2013-01-13 19:22:00,
2013-01-13 14:27:00,68.5,60.7,30.10,South,180,1.6,2.2,76,-99.99,,,-99.99,WeatherSnoop3.0,2013-01-13 19:27:00,
2013-01-13 14:32:00,68.0,60.1,30.10,SW,225,1.6,3.1,76,-99.99,,,-99.99,WeatherSnoop3.0,2013-01-13 19:32:00,
2013-01-13 14:37:00,67.5,60.4,30.10,South,180,1.6,3.1,78,-99.99,,,-99.99,WeatherSnoop3.0,2013-01-13 19:37:00,
2013-01-13 14:42:00,67.5,60.7,30.11,South,180,0.7,1.6,79,-99.99,,,-99.99,WeatherSnoop3.0,2013-01-13 19:42:00,
2013-01-13 14:47:00,66.7,60.0,30.11,South,180,0.7,2.2,79,-99.99,,,-99.99,WeatherSnoop3.0,2013-01-13 19:47:00,
2013-01-13 14:52:00,67.3,60.9,30.11,South,180,0.7,1.6,80,-99.99,,,-99.99,WeatherSnoop3.0,2013-01-13 19:52:00,
2013-01-13 14:57:00,67.8,61.4,30.11,South,180,0.7,2.2,80,-99.99,,,-99.99,WeatherSnoop3.0,2013-01-13 19:57:00,
2013-01-13 15:02:00,67.3,60.9,30.12,South,180,1.6,3.1,80,-99.99,,,-99.99,WeatherSnoop3.0,2013-01-13 20:02:00,
2013-01-13 15:07:00,67.1,60.7,30.12,East,90,1.6,2.2,80,-99.99,,,-99.99,WeatherSnoop3.0,2013-01-13 20:07:00,
2013-01-13 15:12:00,67.1,61.1,30.12,South,180,0.0,1.6,81,-99.99,,,-99.99,WeatherSnoop3.0,2013-01-13 20:12:00,
2013-01-13 15:17:00,67.5,61.4,30.12,South,180,0.0,0.0,81,-99.99,,,-99.99,WeatherSnoop3.0,2013-01-13 20:17:00,
2013-01-13 15:22:00,67.5,61.1,30.12,South,180,0.0,1.6,80,-99.99,,,-99.99,WeatherSnoop3.0,2013-01-13 20:22:00,
2013-01-13 15:27:00,68.0,61.6,30.12,South,180,0.0,0.0,80,-99.99,,,-99.99,WeatherSnoop3.0,2013-01-13 20:27:00,
2013-01-13 15:32:00,68.4,61.9,30.12,South,180,0.0,0.0,80,-99.99,,,-99.99,WeatherSnoop3.0,2013-01-13 20:32:00,
2013-01-13 15:37:00,68.0,61.2,30.13,South,180,0.7,1.6,79,-99.99,,,-99.99,WeatherSnoop3.0,2013-01-13 20:37:00,
2013-01-13 15:42:00,66.9,60.5,30.13,South,180,1.6,2.2,80,-99.99,,,-99.99,WeatherSnoop3.0,2013-01-13 20:42:00,
2013-01-13 15:47:00,67.1,61.1,30.13,South,180,0.7,1.6,81,-99.99,,,-99.99,WeatherSnoop3.0,2013-01-13 20:47:00,
2013-01-13 15:52:00,68.2,61.8,30.13,South,180,0.0,1.6,80,-99.99,,,-99.99,WeatherSnoop3.0,2013-01-13 20:52:00,
2013-01-13 15:57:00,68.7,62.3,30.13,South,180,0.0,0.7,80,-99.99,,,-99.99,WeatherSnoop3.0,2013-01-13 20:57:00,
2013-01-13 16:02:00,68.2,61.4,30.14,South,180,0.7,1.6,79,-99.99,,,-99.99,WeatherSnoop3.0,2013-01-13 21:02:00,
2013-01-13 16:07:00,68.2,61.8,30.14,South,180,0.0,0.0,80,-99.99,,,-99.99,WeatherSnoop3.0,2013-01-13 21:07:00,
2013-01-13 16:12:00,67.3,61.2,30.14,South,180,0.7,1.6,81,-99.99,,,-99.99,WeatherSnoop3.0,2013-01-13 21:12:00,
2013-01-13 16:17:00,67.1,61.4,30.14,South,180,0.0,1.6,82,-99.99,,,-99.99,WeatherSnoop3.0,2013-01-13 21:17:00,
2013-01-13 16:22:00,67.5,62.1,30.14,South,180,0.0,0.0,83,-99.99,,,-99.99,WeatherSnoop3.0,2013-01-13 21:22:00,
2013-01-13 16:27:00,67.3,61.9,30.14,South,180,0.0,0.0,83,-99.99,,,-99.99,WeatherSnoop3.0,2013-01-13 21:27:00,
2013-01-13 16:32:00,66.9,61.9,30.14,South,180,0.0,0.0,84,-99.99,,,-99.99,WeatherSnoop3.0,2013-01-13 21:32:00,
2013-01-13 16:37:00,66.7,61.7,30.14,South,180,0.7,1.6,84,-99.99,,,-99.99,WeatherSnoop3.0,2013-01-13 21:37:00,
2013-01-13 16:42:00,66.7,61.7,30.14,South,180,0.0,0.0,84,-99.99,,,-99.99,WeatherSnoop3.0,2013-01-13 21:42:00,
2013-01-13 16:47:00,66.7,61.7,30.14,South,180,0.0,0.0,84,-99.99,,,-99.99,WeatherSnoop3.0,2013-01-13 21:47:00,
2013-01-13 16:52:00,66.6,61.6,30.14,South,180,0.7,1.6,84,-99.99,,,-99.99,WeatherSnoop3.0,2013-01-13 21:52:00,
2013-01-13 16:57:00,65.8,61.2,30.14,South,180,0.7,2.2,85,-99.99,,,-99.99,WeatherSnoop3.0,2013-01-13 21:57:00,
2013-01-13 17:02:00,65.1,60.5,30.14,South,180,0.0,0.0,85,-99.99,,,-99.99,WeatherSnoop3.0,2013-01-13 22:02:00,
2013-01-13 17:07:00,64.8,60.1,30.14,South,180,0.7,1.6,85,-99.99,,,-99.99,WeatherSnoop3.0,2013-01-13 22:07:00,
2013-01-13 17:12:00,64.4,59.8,30.13,South,180,0.0,0.0,85,-99.99,,,-99.99,WeatherSnoop3.0,2013-01-13 22:12:00,
2013-01-13 17:17:00,64.4,60.1,30.14,SE,135,0.0,0.0,86,-99.99,,,-99.99,WeatherSnoop3.0,2013-01-13 22:17:00,
2013-01-13 17:22:00,63.9,59.3,30.14,South,180,0.0,0.0,85,-99.99,,,-99.99,WeatherSnoop3.0,2013-01-13 22:22:00,
2013-01-13 17:27:00,63.7,59.1,30.14,South,180,0.0,0.0,85,-99.99,,,-99.99,WeatherSnoop3.0,2013-01-13 22:27:00,
2013-01-13 17:32:00,63.5,59.2,30.14,South,180,0.0,0.0,86,-99.99,,,-99.99,WeatherSnoop3.0,2013-01-13 22:32:00,
2013-01-13 17:37:00,63.1,58.9,30.14,South,180,0.0,0.0,86,-99.99,,,-99.99,WeatherSnoop3.0,2013-01-13 22:37:00,
2013-01-13 17:42:00,62.8,58.8,30.14,South,180,0.0,0.0,87,-99.99,,,-99.99,WeatherSnoop3.0,2013-01-13 22:42:00,
2013-01-13 17:47:00,62.6,58.7,30.13,South,180,0.0,0.0,87,-99.99,,,-99.99,WeatherSnoop3.0,2013-01-13 22:47:00,
2013-01-13 17:52:00,62.2,58.6,30.13,South,180,0.0,0.0,88,-99.99,,,-99.99,WeatherSnoop3.0,2013-01-13 22:52:00,
2013-01-13 17:57:00,62.1,58.8,30.13,South,180,0.0,0.0,89,-99.99,,,-99.99,WeatherSnoop3.0,2013-01-13 22:57:00,
2013-01-13 18:02:00,61.7,58.4,30.13,West,270,0.0,0.0,89,-99.99,,,-99.99,WeatherSnoop3.0,2013-01-13 23:02:00,
2013-01-13 18:07:00,61.5,58.6,30.13,West,270,0.0,0.0,90,-99.99,,,-99.99,WeatherSnoop3.0,2013-01-13 23:07:00,
2013-01-13 18:12:00,61.3,58.4,30.14,West,270,0.0,0.0,90,-99.99,,,-99.99,WeatherSnoop3.0,2013-01-13 23:12:00,
2013-01-13 18:17:00,61.3,58.7,30.14,West,270,0.0,0.0,91,-99.99,,,-99.99,WeatherSnoop3.0,2013-01-13 23:17:00,
2013-01-13 18:22:00,61.2,58.5,30.13,West,270,0.0,0.0,91,-99.99,,,-99.99,WeatherSnoop3.0,2013-01-13 23:22:00,
2013-01-13 18:27:00,61.0,58.6,30.14,West,270,0.0,0.0,92,-99.99,,,-99.99,WeatherSnoop3.0,2013-01-13 23:27:00,
2013-01-13 18:32:00,60.8,58.5,30.13,West,270,0.0,0.0,92,-99.99,,,-99.99,WeatherSnoop3.0,2013-01-13 23:32:00,
2013-01-13 18:37:00,60.6,58.6,30.13,West,270,0.0,0.0,93,-99.99,,,-99.99,WeatherSnoop3.0,2013-01-13 23:37:00,
2013-01-13 18:42:00,60.6,58.6,30.14,West,270,0.0,0.0,93,-99.99,,,-99.99,WeatherSnoop3.0,2013-01-13 23:42:00,
2013-01-13 18:47:00,60.4,58.4,30.14,West,270,0.0,0.0,93,-99.99,,,-99.99,WeatherSnoop3.0,2013-01-13 23:47:00,
2013-01-13 18:52:00,60.3,58.5,30.13,West,270,0.0,0.0,94,-99.99,,,-99.99,WeatherSnoop3.0,2013-01-13 23:52:00,
2013-01-13 18:57:00,60.3,58.5,30.13,West,270,0.0,0.0,94,-99.99,,,-99.99,WeatherSnoop3.0,2013-01-13 23:57:00,
2013-01-13 19:02:00,59.7,58.0,30.13,West,270,0.0,0.0,94,-99.99,,,-99.99,WeatherSnoop3.0,2013-01-14 00:02:00,
2013-01-13 19:07:00,59.9,58.2,30.13,West,270,0.0,0.0,94,-99.99,,,-99.99,WeatherSnoop3.0,2013-01-14 00:07:00,
2013-01-13 19:12:00,59.5,57.8,30.14,West,270,0.0,0.0,94,-99.99,,,-99.99,WeatherSnoop3.0,2013-01-14 00:12:00,
2013-01-13 19:17:00,59.4,57.6,30.13,West,270,0.0,0.0,94,-99.99,,,-99.99,WeatherSnoop3.0,2013-01-14 00:17:00,
2013-01-13 19:22:00,59.2,57.5,30.14,West,270,0.0,0.0,94,-99.99,,,-99.99,WeatherSnoop3.0,2013-01-14 00:22:00,
2013-01-13 19:27:00,59.2,57.5,30.13,West,270,0.0,0.0,94,-99.99,,,-99.99,WeatherSnoop3.0,2013-01-14 00:27:00,
2013-01-13 19:32:00,59.2,57.5,30.13,West,270,0.0,0.0,94,-99.99,,,-99.99,WeatherSnoop3.0,2013-01-14 00:32:00,
2013-01-13 19:37:00,59.2,57.5,30.13,West,270,0.0,0.0,94,-99.99,,,-99.99,WeatherSnoop3.0,2013-01-14 00:37:00,
2013-01-13 19:42:00,59.4,57.9,30.13,West,270,0.0,0.0,95,-99.99,,,-99.99,WeatherSnoop3.0,2013-01-14 00:42:00,
2013-01-13 19:47:00,59.2,57.7,30.13,West,270,0.0,0.0,95,-99.99,,,-99.99,WeatherSnoop3.0,2013-01-14 00:47:00,
2013-01-13 19:52:00,59.0,57.6,30.13,West,270,0.0,0.0,95,-99.99,,,-99.99,WeatherSnoop3.0,2013-01-14 00:52:00,
2013-01-13 19:57:00,59.2,57.7,30.12,West,270,0.0,0.0,95,-99.99,,,-99.99,WeatherSnoop3.0,2013-01-14 00:57:00,
2013-01-13 20:02:00,59.0,57.6,30.13,West,270,0.0,0.0,95,-99.99,,,-99.99,WeatherSnoop3.0,2013-01-14 01:02:00,
2013-01-13 20:07:00,59.2,57.7,30.13,West,270,0.0,0.0,95,-99.99,,,-99.99,WeatherSnoop3.0,2013-01-14 01:07:00,
2013-01-13 20:12:00,59.0,57.6,30.13,West,270,0.0,0.0,95,-99.99,,,-99.99,WeatherSnoop3.0,2013-01-14 01:12:00,
2013-01-13 20:17:00,58.8,57.7,30.13,West,270,0.0,0.0,96,-99.99,,,-99.99,WeatherSnoop3.0,2013-01-14 01:17:00,
2013-01-13 20:22:00,58.5,57.3,30.12,West,270,0.0,0.0,96,-99.99,,,-99.99,WeatherSnoop3.0,2013-01-14 01:22:00,
2013-01-13 20:27:00,58.3,57.1,30.12,West,270,0.0,0.0,96,-99.99,,,-99.99,WeatherSnoop3.0,2013-01-14 01:27:00,
2013-01-13 20:32:00,58.1,57.0,30.12,West,270,0.0,0.0,96,-99.99,,,-99.99,WeatherSnoop3.0,2013-01-14 01:32:00,
2013-01-13 20:37:00,58.1,57.0,30.12,West,270,0.0,0.0,96,-99.99,,,-99.99,WeatherSnoop3.0,2013-01-14 01:37:00,
2013-01-13 20:42:00,58.1,57.0,30.12,West,270,0.0,0.0,96,-99.99,,,-99.99,WeatherSnoop3.0,2013-01-14 01:42:00,
2013-01-13 20:47:00,57.7,56.6,30.12,West,270,0.0,0.0,96,-99.99,,,-99.99,WeatherSnoop3.0,2013-01-14 01:47:00,
2013-01-13 20:52:00,57.7,56.6,30.13,West,270,0.0,0.0,96,-99.99,,,-99.99,WeatherSnoop3.0,2013-01-14 01:52:00,
2013-01-13 20:57:00,57.6,56.4,30.13,West,270,0.0,0.0,96,-99.99,,,-99.99,WeatherSnoop3.0,2013-01-14 01:57:00,
2013-01-13 21:02:00,57.6,56.4,30.12,West,270,0.0,0.0,96,-99.99,,,-99.99,WeatherSnoop3.0,2013-01-14 02:02:00,
2013-01-13 21:07:00,57.7,56.6,30.13,West,270,0.0,0.0,96,-99.99,,,-99.99,WeatherSnoop3.0,2013-01-14 02:07:00,
2013-01-13 21:12:00,57.6,56.4,30.12,West,270,0.0,0.0,96,-99.99,,,-99.99,WeatherSnoop3.0,2013-01-14 02:12:00,
2013-01-13 21:17:00,57.6,56.4,30.12,West,270,0.0,0.0,96,-99.99,,,-99.99,WeatherSnoop3.0,2013-01-14 02:17:00,
2013-01-13 21:22:00,57.4,56.2,30.13,West,270,0.0,0.0,96,-99.99,,,-99.99,WeatherSnoop3.0,2013-01-14 02:22:00,
2013-01-13 21:27:00,57.7,56.9,30.13,West,270,0.0,0.0,97,-99.99,,,-99.99,WeatherSnoop3.0,2013-01-14 02:27:00,
2013-01-13 21:32:00,57.6,56.7,30.14,West,270,0.0,0.0,97,-99.99,,,-99.99,WeatherSnoop3.0,2013-01-14 02:32:00,
2013-01-13 21:37:00,57.2,56.1,30.14,West,270,0.0,0.0,96,-99.99,,,-99.99,WeatherSnoop3.0,2013-01-14 02:37:00,
2013-01-13 21:42:00,56.8,56.0,30.14,West,270,0.0,0.0,97,-99.99,,,-99.99,WeatherSnoop3.0,2013-01-14 02:42:00,
2013-01-13 21:47:00,56.7,55.8,30.15,West,270,0.0,0.0,97,-99.99,,,-99.99,WeatherSnoop3.0,2013-01-14 02:47:00,
2013-01-13 21:52:00,56.8,56.0,30.14,West,270,0.0,0.0,97,-99.99,,,-99.99,WeatherSnoop3.0,2013-01-14 02:52:00,
2013-01-13 21:57:00,56.8,56.3,30.14,West,270,0.0,0.0,98,-99.99,,,-99.99,WeatherSnoop3.0,2013-01-14 02:57:00,
2013-01-13 22:02:00,56.8,56.3,30.15,West,270,0.0,0.0,98,-99.99,,,-99.99,WeatherSnoop3.0,2013-01-14 03:02:00,
2013-01-13 22:07:00,56.7,55.8,30.15,West,270,0.0,0.0,97,-99.99,,,-99.99,WeatherSnoop3.0,2013-01-14 03:07:00,
2013-01-13 22:12:00,56.7,55.8,30.15,West,270,0.0,0.0,97,-99.99,,,-99.99,WeatherSnoop3.0,2013-01-14 03:12:00,
2013-01-13 22:17:00,56.5,55.6,30.15,West,270,0.0,0.0,97,-99.99,,,-99.99,WeatherSnoop3.0,2013-01-14 03:17:00,
2013-01-13 22:22:00,56.5,55.6,30.15,West,270,0.0,0.0,97,-99.99,,,-99.99,WeatherSnoop3.0,2013-01-14 03:22:00,
2013-01-13 22:27:00,56.5,55.6,30.16,West,270,0.0,0.0,97,-99.99,,,-99.99,WeatherSnoop3.0,2013-01-14 03:27:00,
2013-01-13 22:32:00,56.7,55.8,30.15,West,270,0.0,0.0,97,-99.99,,,-99.99,WeatherSnoop3.0,2013-01-14 03:32:00,
2013-01-13 22:37:00,56.7,56.1,30.15,West,270,0.0,0.0,98,-99.99,,,-99.99,WeatherSnoop3.0,2013-01-14 03:37:00,
2013-01-13 22:42:00,56.5,55.9,30.15,West,270,0.0,0.0,98,-99.99,,,-99.99,WeatherSnoop3.0,2013-01-14 03:42:00,
2013-01-13 22:47:00,56.3,55.7,30.15,West,270,0.0,0.0,98,-99.99,,,-99.99,WeatherSnoop3.0,2013-01-14 03:47:00,
2013-01-13 22:52:00,56.5,55.9,30.15,West,270,0.0,0.0,98,-99.99,,,-99.99,WeatherSnoop3.0,2013-01-14 03:52:00,
2013-01-13 22:57:00,56.7,56.1,30.16,West,270,0.0,0.0,98,-99.99,,,-99.99,WeatherSnoop3.0,2013-01-14 03:57:00,
2013-01-13 23:02:00,56.7,56.1,30.16,West,270,0.0,0.0,98,-99.99,,,-99.99,WeatherSnoop3.0,2013-01-14 04:02:00,
2013-01-13 23:07:00,56.3,55.7,30.15,West,270,0.0,0.0,98,-99.99,,,-99.99,WeatherSnoop3.0,2013-01-14 04:07:00,
2013-01-13 23:12:00,56.1,55.6,30.16,West,270,0.0,0.0,98,-99.99,,,-99.99,WeatherSnoop3.0,2013-01-14 04:12:00,
2013-01-13 23:17:00,56.3,55.7,30.16,West,270,0.0,0.0,98,-99.99,,,-99.99,WeatherSnoop3.0,2013-01-14 04:17:00,
2013-01-13 23:22:00,56.7,56.1,30.16,West,270,0.0,0.0,98,-99.99,,,-99.99,WeatherSnoop3.0,2013-01-14 04:22:00,
2013-01-13 23:27:00,56.7,56.1,30.16,West,270,0.0,0.0,98,-99.99,,,-99.99,WeatherSnoop3.0,2013-01-14 04:27:00,
2013-01-13 23:32:00,56.7,56.1,30.16,West,270,0.0,0.0,98,-99.99,,,-99.99,WeatherSnoop3.0,2013-01-14 04:32:00,
2013-01-13 23:37:00,56.8,56.3,30.16,West,270,0.0,0.0,98,-99.99,,,-99.99,WeatherSnoop3.0,2013-01-14 04:37:00,
2013-01-13 23:42:00,56.5,55.9,30.16,West,270,0.0,0.0,98,-99.99,,,-99.99,WeatherSnoop3.0,2013-01-14 04:42:00,
2013-01-13 23:47:00,56.3,55.7,30.16,West,270,0.0,0.0,98,-99.99,,,-99.99,WeatherSnoop3.0,2013-01-14 04:47:00,
2013-01-13 23:52:00,56.5,55.9,30.16,West,270,0.0,0.0,98,-99.99,,,-99.99,WeatherSnoop3.0,2013-01-14 04:52:00,
2013-01-13 23:57:00,56.5,55.9,30.16,West,270,0.0,0.0,98,-99.99,,,-99.99,WeatherSnoop3.0,2013-01-14 04:57:00,